owner,sensor,date,latitude,longitude,air_pressure(mBar),qcFlag 
WAVCIS,ioos:station:WAVCIS:CSI03:1,2013-01-01T00:00:00Z,29.4412,-92.0613,1011.18,11111222 
WAVCIS,ioos:station:WAVCIS:CSI03:1,2013-01-01T01:00:00Z,29.4412,-92.0613,1010.41,11111222 
WAVCIS,ioos:station:WAVCIS:CSI03:1,2013-01-01T02:00:00Z,29.4412,-92.0613,1010.25,11111222 
WAVCIS,ioos:station:WAVCIS:CSI03:1,2013-01-01T03:00:00Z,29.4412,-92.0613,1010.48,11111222 
WAVCIS,ioos:station:WAVCIS:CSI03:1,2013-01-01T04:00:00Z,29.4412,-92.0613,1010.3,11111222 
WAVCIS,ioos:station:WAVCIS:CSI03:1,2013-01-01T05:00:00Z,29.4412,-92.0613,1010.02,11111222 
WAVCIS,ioos:station:WAVCIS:CSI03:1,2013-01-01T06:00:00Z,29.4412,-92.0613,1009.33,11111222 
WAVCIS,ioos:station:WAVCIS:CSI03:1,2013-01-01T07:00:00Z,29.4412,-92.0613,1008.35,11111222 
WAVCIS,ioos:station:WAVCIS:CSI03:1,2013-01-01T08:00:00Z,29.4412,-92.0613,1008.24,11111222 
WAVCIS,ioos:station:WAVCIS:CSI03:1,2013-01-01T09:00:00Z,29.4412,-92.0613,1008.17,11111222 
WAVCIS,ioos:station:WAVCIS:CSI03:1,2013-01-01T10:00:00Z,29.4412,-92.0613,1007.92,11111222 
WAVCIS,ioos:station:WAVCIS:CSI03:1,2013-01-01T11:00:00Z,29.4412,-92.0613,1007.32,11111222 
WAVCIS,ioos:station:WAVCIS:CSI03:1,2013-01-01T12:00:00Z,29.4412,-92.0613,1007.46,11111222 
WAVCIS,ioos:station:WAVCIS:CSI03:1,2013-01-01T13:00:00Z,29.4412,-92.0613,1007.5,11111222 
WAVCIS,ioos:station:WAVCIS:CSI03:1,2013-01-01T14:00:00Z,29.4412,-92.0613,1008.15,11111222 
WAVCIS,ioos:station:WAVCIS:CSI03:1,2013-01-01T15:00:00Z,29.4412,-92.0613,1008.11,11111222 
WAVCIS,ioos:station:WAVCIS:CSI03:1,2013-01-01T16:00:00Z,29.4412,-92.0613,1008.66,11111222 
WAVCIS,ioos:station:WAVCIS:CSI03:1,2013-01-01T17:00:00Z,29.4412,-92.0613,1008.26,11111222 
WAVCIS,ioos:station:WAVCIS:CSI03:1,2013-01-01T18:00:00Z,29.4412,-92.0613,1007.1,11111222 
WAVCIS,ioos:station:WAVCIS:CSI03:1,2013-01-01T19:00:00Z,29.4412,-92.0613,1006.38,11111222 
WAVCIS,ioos:station:WAVCIS:CSI03:1,2013-01-01T20:00:00Z,29.4412,-92.0613,1007.1,11111222 
WAVCIS,ioos:station:WAVCIS:CSI03:1,2013-01-01T21:00:00Z,29.4412,-92.0613,1007.67,11111222 
WAVCIS,ioos:station:WAVCIS:CSI03:1,2013-01-01T22:00:00Z,29.4412,-92.0613,1008.58,11111222 
WAVCIS,ioos:station:WAVCIS:CSI03:1,2013-01-01T23:00:00Z,29.4412,-92.0613,1009.49,11111222 
WAVCIS,ioos:station:WAVCIS:CSI03:1,2013-01-02T00:00:00Z,29.4412,-92.0613,1010.37,11111222 
WAVCIS,ioos:station:WAVCIS:CSI03:1,2013-01-02T01:00:00Z,29.4412,-92.0613,1010.98,11111222 
WAVCIS,ioos:station:WAVCIS:CSI03:1,2013-01-02T02:00:00Z,29.4412,-92.0613,1012.14,11111222 
WAVCIS,ioos:station:WAVCIS:CSI03:1,2013-01-02T03:00:00Z,29.4412,-92.0613,1012.09,11111222 
WAVCIS,ioos:station:WAVCIS:CSI03:1,2013-01-02T04:00:00Z,29.4412,-92.0613,1012.82,11111222 
WAVCIS,ioos:station:WAVCIS:CSI03:1,2013-01-02T05:00:00Z,29.4412,-92.0613,1013.86,11111222 
WAVCIS,ioos:station:WAVCIS:CSI03:1,2013-01-02T06:00:00Z,29.4412,-92.0613,1013.21,11111222 
WAVCIS,ioos:station:WAVCIS:CSI03:1,2013-01-02T07:00:00Z,29.4412,-92.0613,1012.69,11111222 
WAVCIS,ioos:station:WAVCIS:CSI03:1,2013-01-02T08:00:00Z,29.4412,-92.0613,1012.76,11111222 
WAVCIS,ioos:station:WAVCIS:CSI03:1,2013-01-02T09:00:00Z,29.4412,-92.0613,1012.66,11111222 
WAVCIS,ioos:station:WAVCIS:CSI03:1,2013-01-02T10:00:00Z,29.4412,-92.0613,1012.75,11111222 
WAVCIS,ioos:station:WAVCIS:CSI03:1,2013-01-02T11:00:00Z,29.4412,-92.0613,1013.48,11111222 
WAVCIS,ioos:station:WAVCIS:CSI03:1,2013-01-02T12:00:00Z,29.4412,-92.0613,1013.96,11111222 
WAVCIS,ioos:station:WAVCIS:CSI03:1,2013-01-02T13:00:00Z,29.4412,-92.0613,1014.96,11111222 
WAVCIS,ioos:station:WAVCIS:CSI03:1,2013-01-02T14:00:00Z,29.4412,-92.0613,1015.66,11111222 
WAVCIS,ioos:station:WAVCIS:CSI03:1,2013-01-02T15:00:00Z,29.4412,-92.0613,1016.24,11111222 
WAVCIS,ioos:station:WAVCIS:CSI03:1,2013-01-02T16:00:00Z,29.4412,-92.0613,1016.13,11111222 
WAVCIS,ioos:station:WAVCIS:CSI03:1,2013-01-02T17:00:00Z,29.4412,-92.0613,1015.98,11111222 
WAVCIS,ioos:station:WAVCIS:CSI03:1,2013-01-02T18:00:00Z,29.4412,-92.0613,1015.29,11111222 
WAVCIS,ioos:station:WAVCIS:CSI03:1,2013-01-02T19:00:00Z,29.4412,-92.0613,1014.69,11111222 
WAVCIS,ioos:station:WAVCIS:CSI03:1,2013-01-02T20:00:00Z,29.4412,-92.0613,1015.42,11111222 
WAVCIS,ioos:station:WAVCIS:CSI03:1,2013-01-02T21:00:00Z,29.4412,-92.0613,1014.43,11111222 
WAVCIS,ioos:station:WAVCIS:CSI03:1,2013-01-02T22:00:00Z,29.4412,-92.0613,1015.23,11111222 
WAVCIS,ioos:station:WAVCIS:CSI03:1,2013-01-02T23:00:00Z,29.4412,-92.0613,1015.43,11111222 
WAVCIS,ioos:station:WAVCIS:CSI03:1,2013-01-03T00:00:00Z,29.4412,-92.0613,1016.23,11111222 
WAVCIS,ioos:station:WAVCIS:CSI03:1,2013-01-03T01:00:00Z,29.4412,-92.0613,1015.45,11111222 
WAVCIS,ioos:station:WAVCIS:CSI03:1,2013-01-03T02:00:00Z,29.4412,-92.0613,1016.5,11111222 
WAVCIS,ioos:station:WAVCIS:CSI03:1,2013-01-03T03:00:00Z,29.4412,-92.0613,1017.59,11111222 
WAVCIS,ioos:station:WAVCIS:CSI03:1,2013-01-03T04:00:00Z,29.4412,-92.0613,1017.4,11111222 
WAVCIS,ioos:station:WAVCIS:CSI03:1,2013-01-03T05:00:00Z,29.4412,-92.0613,1017.81,11111222 
WAVCIS,ioos:station:WAVCIS:CSI03:1,2013-01-03T06:00:00Z,29.4412,-92.0613,1017.68,11111222 
WAVCIS,ioos:station:WAVCIS:CSI03:1,2013-01-03T07:00:00Z,29.4412,-92.0613,1017.52,11111222 
WAVCIS,ioos:station:WAVCIS:CSI03:1,2013-01-03T08:00:00Z,29.4412,-92.0613,1017.83,11111222 
WAVCIS,ioos:station:WAVCIS:CSI03:1,2013-01-03T09:00:00Z,29.4412,-92.0613,1017.33,11111222 
WAVCIS,ioos:station:WAVCIS:CSI03:1,2013-01-03T10:00:00Z,29.4412,-92.0613,1018.25,11111222 
WAVCIS,ioos:station:WAVCIS:CSI03:1,2013-01-03T11:00:00Z,29.4412,-92.0613,1018.3,11111222 
WAVCIS,ioos:station:WAVCIS:CSI03:1,2013-01-03T12:00:00Z,29.4412,-92.0613,1018.59,11111222 
WAVCIS,ioos:station:WAVCIS:CSI03:1,2013-01-03T13:00:00Z,29.4412,-92.0613,1019.55,11111222 
WAVCIS,ioos:station:WAVCIS:CSI03:1,2013-01-03T14:00:00Z,29.4412,-92.0613,1020.23,11111222 
WAVCIS,ioos:station:WAVCIS:CSI03:1,2013-01-03T15:00:00Z,29.4412,-92.0613,1020.92,11111222 
WAVCIS,ioos:station:WAVCIS:CSI03:1,2013-01-03T16:00:00Z,29.4412,-92.0613,1021.43,11111222 
WAVCIS,ioos:station:WAVCIS:CSI03:1,2013-01-03T17:00:00Z,29.4412,-92.0613,1021.14,11111222 
WAVCIS,ioos:station:WAVCIS:CSI03:1,2013-01-03T18:00:00Z,29.4412,-92.0613,1020.27,11111222 
WAVCIS,ioos:station:WAVCIS:CSI03:1,2013-01-03T19:00:00Z,29.4412,-92.0613,1019.0,11111222 
WAVCIS,ioos:station:WAVCIS:CSI03:1,2013-01-03T20:00:00Z,29.4412,-92.0613,1018.62,11111222 
WAVCIS,ioos:station:WAVCIS:CSI03:1,2013-01-03T21:00:00Z,29.4412,-92.0613,1018.67,11111222 
WAVCIS,ioos:station:WAVCIS:CSI03:1,2013-01-03T22:00:00Z,29.4412,-92.0613,1018.87,11111222 
WAVCIS,ioos:station:WAVCIS:CSI03:1,2013-01-03T23:00:00Z,29.4412,-92.0613,1019.8,11111222 
WAVCIS,ioos:station:WAVCIS:CSI03:1,2013-01-04T00:00:00Z,29.4412,-92.0613,1020.92,11111222 
WAVCIS,ioos:station:WAVCIS:CSI03:1,2013-01-04T01:00:00Z,29.4412,-92.0613,1021.46,11111222 
WAVCIS,ioos:station:WAVCIS:CSI03:1,2013-01-04T02:00:00Z,29.4412,-92.0613,1021.69,11111222 
WAVCIS,ioos:station:WAVCIS:CSI03:1,2013-01-04T03:00:00Z,29.4412,-92.0613,1022.34,11111222 
WAVCIS,ioos:station:WAVCIS:CSI03:1,2013-01-04T04:00:00Z,29.4412,-92.0613,1022.52,11111222 
WAVCIS,ioos:station:WAVCIS:CSI03:1,2013-01-04T05:00:00Z,29.4412,-92.0613,1022.88,11111222 
WAVCIS,ioos:station:WAVCIS:CSI03:1,2013-01-04T06:00:00Z,29.4412,-92.0613,1022.16,11111222 
WAVCIS,ioos:station:WAVCIS:CSI03:1,2013-01-04T07:00:00Z,29.4412,-92.0613,1022.07,11111222 
WAVCIS,ioos:station:WAVCIS:CSI03:1,2013-01-04T08:00:00Z,29.4412,-92.0613,1021.42,11111222 
WAVCIS,ioos:station:WAVCIS:CSI03:1,2013-01-04T09:00:00Z,29.4412,-92.0613,1021.15,11111222 
WAVCIS,ioos:station:WAVCIS:CSI03:1,2013-01-04T10:00:00Z,29.4412,-92.0613,1021.22,11111222 
WAVCIS,ioos:station:WAVCIS:CSI03:1,2013-01-04T11:00:00Z,29.4412,-92.0613,1021.47,11111222 
WAVCIS,ioos:station:WAVCIS:CSI03:1,2013-01-04T12:00:00Z,29.4412,-92.0613,1022.43,11111222 
WAVCIS,ioos:station:WAVCIS:CSI03:1,2013-01-04T13:00:00Z,29.4412,-92.0613,1023.01,11111222 
WAVCIS,ioos:station:WAVCIS:CSI03:1,2013-01-04T14:00:00Z,29.4412,-92.0613,1023.58,11111222 
WAVCIS,ioos:station:WAVCIS:CSI03:1,2013-01-04T15:00:00Z,29.4412,-92.0613,1024.29,11111222 
WAVCIS,ioos:station:WAVCIS:CSI03:1,2013-01-04T16:00:00Z,29.4412,-92.0613,1025.63,11111222 
WAVCIS,ioos:station:WAVCIS:CSI03:1,2013-01-04T17:00:00Z,29.4412,-92.0613,1025.05,11111222 
WAVCIS,ioos:station:WAVCIS:CSI03:1,2013-01-04T18:00:00Z,29.4412,-92.0613,1024.0,11111222 
WAVCIS,ioos:station:WAVCIS:CSI03:1,2013-01-04T19:00:00Z,29.4412,-92.0613,1022.54,11111222 
WAVCIS,ioos:station:WAVCIS:CSI03:1,2013-01-04T20:00:00Z,29.4412,-92.0613,1021.74,11111222 
WAVCIS,ioos:station:WAVCIS:CSI03:1,2013-01-04T21:00:00Z,29.4412,-92.0613,1021.12,11111222 
WAVCIS,ioos:station:WAVCIS:CSI03:1,2013-01-04T22:00:00Z,29.4412,-92.0613,1021.23,11111222 
WAVCIS,ioos:station:WAVCIS:CSI03:1,2013-01-04T23:00:00Z,29.4412,-92.0613,1021.46,11111222 
WAVCIS,ioos:station:WAVCIS:CSI03:1,2013-01-05T00:00:00Z,29.4412,-92.0613,1021.91,11111222 
WAVCIS,ioos:station:WAVCIS:CSI03:1,2013-01-05T01:00:00Z,29.4412,-92.0613,1022.34,11111222 
WAVCIS,ioos:station:WAVCIS:CSI03:1,2013-01-05T02:00:00Z,29.4412,-92.0613,1022.48,11111222 
WAVCIS,ioos:station:WAVCIS:CSI03:1,2013-01-05T03:00:00Z,29.4412,-92.0613,1021.7,11111222 
WAVCIS,ioos:station:WAVCIS:CSI03:1,2013-01-05T04:00:00Z,29.4412,-92.0613,1021.3,11111222 
WAVCIS,ioos:station:WAVCIS:CSI03:1,2013-01-05T05:00:00Z,29.4412,-92.0613,1020.73,11111222 
WAVCIS,ioos:station:WAVCIS:CSI03:1,2013-01-05T06:00:00Z,29.4412,-92.0613,1019.94,11111222 
WAVCIS,ioos:station:WAVCIS:CSI03:1,2013-01-05T07:00:00Z,29.4412,-92.0613,1020.35,11111222 
WAVCIS,ioos:station:WAVCIS:CSI03:1,2013-01-05T08:00:00Z,29.4412,-92.0613,1020.17,11111222 
WAVCIS,ioos:station:WAVCIS:CSI03:1,2013-01-05T09:00:00Z,29.4412,-92.0613,1019.51,11111222 
WAVCIS,ioos:station:WAVCIS:CSI03:1,2013-01-05T10:00:00Z,29.4412,-92.0613,1020.12,11111222 
WAVCIS,ioos:station:WAVCIS:CSI03:1,2013-01-05T11:00:00Z,29.4412,-92.0613,1019.71,11111222 
WAVCIS,ioos:station:WAVCIS:CSI03:1,2013-01-05T12:00:00Z,29.4412,-92.0613,1019.6,11111222 
WAVCIS,ioos:station:WAVCIS:CSI03:1,2013-01-05T13:00:00Z,29.4412,-92.0613,1019.74,11111222 
WAVCIS,ioos:station:WAVCIS:CSI03:1,2013-01-05T14:00:00Z,29.4412,-92.0613,1020.66,11111222 
WAVCIS,ioos:station:WAVCIS:CSI03:1,2013-01-05T15:00:00Z,29.4412,-92.0613,1020.45,11111222 
WAVCIS,ioos:station:WAVCIS:CSI03:1,2013-01-05T16:00:00Z,29.4412,-92.0613,1020.09,11111222 
WAVCIS,ioos:station:WAVCIS:CSI03:1,2013-01-05T17:00:00Z,29.4412,-92.0613,1020.19,11111222 
WAVCIS,ioos:station:WAVCIS:CSI03:1,2013-01-05T18:00:00Z,29.4412,-92.0613,1019.03,11111222 
WAVCIS,ioos:station:WAVCIS:CSI03:1,2013-01-05T19:00:00Z,29.4412,-92.0613,1017.78,11111222 
WAVCIS,ioos:station:WAVCIS:CSI03:1,2013-01-05T20:00:00Z,29.4412,-92.0613,1017.08,11111222 
WAVCIS,ioos:station:WAVCIS:CSI03:1,2013-01-05T21:00:00Z,29.4412,-92.0613,1017.28,11111222 
WAVCIS,ioos:station:WAVCIS:CSI03:1,2013-01-05T22:00:00Z,29.4412,-92.0613,1016.97,11111222 
WAVCIS,ioos:station:WAVCIS:CSI03:1,2013-01-05T23:00:00Z,29.4412,-92.0613,1016.9,11111222 
WAVCIS,ioos:station:WAVCIS:CSI03:1,2013-01-06T00:00:00Z,29.4412,-92.0613,1016.56,11111222 
WAVCIS,ioos:station:WAVCIS:CSI03:1,2013-01-06T01:00:00Z,29.4412,-92.0613,1016.94,11111222 
WAVCIS,ioos:station:WAVCIS:CSI03:1,2013-01-06T02:00:00Z,29.4412,-92.0613,1017.02,11111222 
WAVCIS,ioos:station:WAVCIS:CSI03:1,2013-01-06T03:00:00Z,29.4412,-92.0613,1016.91,11111222 
WAVCIS,ioos:station:WAVCIS:CSI03:1,2013-01-06T04:00:00Z,29.4412,-92.0613,1016.96,11111222 
WAVCIS,ioos:station:WAVCIS:CSI03:1,2013-01-06T05:00:00Z,29.4412,-92.0613,1016.65,11111222 
WAVCIS,ioos:station:WAVCIS:CSI03:1,2013-01-06T06:00:00Z,29.4412,-92.0613,1016.23,11111222 
WAVCIS,ioos:station:WAVCIS:CSI03:1,2013-01-06T07:00:00Z,29.4412,-92.0613,1016.17,11111222 
WAVCIS,ioos:station:WAVCIS:CSI03:1,2013-01-06T08:00:00Z,29.4412,-92.0613,1015.8,11111222 
WAVCIS,ioos:station:WAVCIS:CSI03:1,2013-01-06T09:00:00Z,29.4412,-92.0613,1015.35,11111222 
WAVCIS,ioos:station:WAVCIS:CSI03:1,2013-01-06T10:00:00Z,29.4412,-92.0613,1015.2,11111222 
WAVCIS,ioos:station:WAVCIS:CSI03:1,2013-01-06T11:00:00Z,29.4412,-92.0613,1015.74,11111222 
WAVCIS,ioos:station:WAVCIS:CSI03:1,2013-01-06T12:00:00Z,29.4412,-92.0613,1016.05,11111222 
WAVCIS,ioos:station:WAVCIS:CSI03:1,2013-01-06T13:00:00Z,29.4412,-92.0613,1016.75,11111222 
WAVCIS,ioos:station:WAVCIS:CSI03:1,2013-01-06T14:00:00Z,29.4412,-92.0613,1017.67,11111222 
WAVCIS,ioos:station:WAVCIS:CSI03:1,2013-01-06T15:00:00Z,29.4412,-92.0613,1017.85,11111222 
WAVCIS,ioos:station:WAVCIS:CSI03:1,2013-01-06T16:00:00Z,29.4412,-92.0613,1017.94,11111222 
WAVCIS,ioos:station:WAVCIS:CSI03:1,2013-01-06T17:00:00Z,29.4412,-92.0613,1018.0,11111222 
WAVCIS,ioos:station:WAVCIS:CSI03:1,2013-01-06T18:00:00Z,29.4412,-92.0613,1017.36,11111222 
WAVCIS,ioos:station:WAVCIS:CSI03:1,2013-01-06T19:00:00Z,29.4412,-92.0613,1017.2,11111222 
WAVCIS,ioos:station:WAVCIS:CSI03:1,2013-01-06T20:00:00Z,29.4412,-92.0613,1016.65,11111222 
WAVCIS,ioos:station:WAVCIS:CSI03:1,2013-01-06T21:00:00Z,29.4412,-92.0613,1016.48,11111222 
WAVCIS,ioos:station:WAVCIS:CSI03:1,2013-01-06T22:00:00Z,29.4412,-92.0613,1016.73,11111222 
WAVCIS,ioos:station:WAVCIS:CSI03:1,2013-01-06T23:00:00Z,29.4412,-92.0613,1017.27,11111222 
WAVCIS,ioos:station:WAVCIS:CSI03:1,2013-01-07T00:00:00Z,29.4412,-92.0613,1017.69,11111222 
WAVCIS,ioos:station:WAVCIS:CSI03:1,2013-01-07T01:00:00Z,29.4412,-92.0613,1018.25,11111222 
WAVCIS,ioos:station:WAVCIS:CSI03:1,2013-01-07T02:00:00Z,29.4412,-92.0613,1018.53,11111222 
WAVCIS,ioos:station:WAVCIS:CSI03:1,2013-01-07T03:00:00Z,29.4412,-92.0613,1019.03,11111222 
WAVCIS,ioos:station:WAVCIS:CSI03:1,2013-01-07T04:00:00Z,29.4412,-92.0613,1019.02,11111222 
WAVCIS,ioos:station:WAVCIS:CSI03:1,2013-01-07T05:00:00Z,29.4412,-92.0613,1019.16,11111222 
WAVCIS,ioos:station:WAVCIS:CSI03:1,2013-01-07T06:00:00Z,29.4412,-92.0613,1019.28,11111222 
WAVCIS,ioos:station:WAVCIS:CSI03:1,2013-01-07T07:00:00Z,29.4412,-92.0613,1019.21,11111222 
WAVCIS,ioos:station:WAVCIS:CSI03:1,2013-01-07T08:00:00Z,29.4412,-92.0613,1018.65,11111222 
WAVCIS,ioos:station:WAVCIS:CSI03:1,2013-01-07T09:00:00Z,29.4412,-92.0613,1018.03,11111222 
WAVCIS,ioos:station:WAVCIS:CSI03:1,2013-01-07T10:00:00Z,29.4412,-92.0613,1018.11,11111222 
WAVCIS,ioos:station:WAVCIS:CSI03:1,2013-01-07T11:00:00Z,29.4412,-92.0613,1017.63,11111222 
WAVCIS,ioos:station:WAVCIS:CSI03:1,2013-01-07T12:00:00Z,29.4412,-92.0613,1017.85,11111222 
WAVCIS,ioos:station:WAVCIS:CSI03:1,2013-01-07T13:00:00Z,29.4412,-92.0613,1018.55,11111222 
WAVCIS,ioos:station:WAVCIS:CSI03:1,2013-01-07T14:00:00Z,29.4412,-92.0613,1018.85,11111222 
WAVCIS,ioos:station:WAVCIS:CSI03:1,2013-01-07T15:00:00Z,29.4412,-92.0613,1019.54,11111222 
WAVCIS,ioos:station:WAVCIS:CSI03:1,2013-01-07T16:00:00Z,29.4412,-92.0613,1019.78,11111222 
WAVCIS,ioos:station:WAVCIS:CSI03:1,2013-01-07T17:00:00Z,29.4412,-92.0613,1019.18,11111222 
WAVCIS,ioos:station:WAVCIS:CSI03:1,2013-01-07T18:00:00Z,29.4412,-92.0613,1018.23,11111222 
WAVCIS,ioos:station:WAVCIS:CSI03:1,2013-01-07T19:00:00Z,29.4412,-92.0613,1016.87,11111222 
WAVCIS,ioos:station:WAVCIS:CSI03:1,2013-01-07T20:00:00Z,29.4412,-92.0613,1016.57,11111222 
WAVCIS,ioos:station:WAVCIS:CSI03:1,2013-01-07T21:00:00Z,29.4412,-92.0613,1016.07,11111222 
WAVCIS,ioos:station:WAVCIS:CSI03:1,2013-01-07T22:00:00Z,29.4412,-92.0613,1015.87,11111222 
WAVCIS,ioos:station:WAVCIS:CSI03:1,2013-01-07T23:00:00Z,29.4412,-92.0613,1015.68,11111222 
WAVCIS,ioos:station:WAVCIS:CSI03:1,2013-01-08T00:00:00Z,29.4412,-92.0613,1015.74,11111222 
WAVCIS,ioos:station:WAVCIS:CSI03:1,2013-01-08T01:00:00Z,29.4412,-92.0613,1015.67,11111222 
WAVCIS,ioos:station:WAVCIS:CSI03:1,2013-01-08T02:00:00Z,29.4412,-92.0613,1015.74,11111222 
WAVCIS,ioos:station:WAVCIS:CSI03:1,2013-01-08T03:00:00Z,29.4412,-92.0613,1015.06,11111222 
WAVCIS,ioos:station:WAVCIS:CSI03:1,2013-01-08T04:00:00Z,29.4412,-92.0613,1014.82,11111222 
WAVCIS,ioos:station:WAVCIS:CSI03:1,2013-01-08T05:00:00Z,29.4412,-92.0613,1014.14,11111222 
WAVCIS,ioos:station:WAVCIS:CSI03:1,2013-01-08T06:00:00Z,29.4412,-92.0613,1013.62,11111222 
WAVCIS,ioos:station:WAVCIS:CSI03:1,2013-01-08T07:00:00Z,29.4412,-92.0613,1013.34,11111222 
WAVCIS,ioos:station:WAVCIS:CSI03:1,2013-01-08T08:00:00Z,29.4412,-92.0613,1012.72,11111222 
WAVCIS,ioos:station:WAVCIS:CSI03:1,2013-01-08T09:00:00Z,29.4412,-92.0613,1012.49,11111222 
WAVCIS,ioos:station:WAVCIS:CSI03:1,2013-01-08T10:00:00Z,29.4412,-92.0613,1011.84,11111222 
WAVCIS,ioos:station:WAVCIS:CSI03:1,2013-01-08T11:00:00Z,29.4412,-92.0613,1011.76,11111222 
WAVCIS,ioos:station:WAVCIS:CSI03:1,2013-01-08T12:00:00Z,29.4412,-92.0613,1012.22,11111222 
WAVCIS,ioos:station:WAVCIS:CSI03:1,2013-01-08T13:00:00Z,29.4412,-92.0613,1012.14,11111222 
WAVCIS,ioos:station:WAVCIS:CSI03:1,2013-01-08T14:00:00Z,29.4412,-92.0613,1012.84,11111222 
WAVCIS,ioos:station:WAVCIS:CSI03:1,2013-01-08T15:00:00Z,29.4412,-92.0613,1014.38,11111222 
WAVCIS,ioos:station:WAVCIS:CSI03:1,2013-01-08T16:00:00Z,29.4412,-92.0613,1014.19,11111222 
WAVCIS,ioos:station:WAVCIS:CSI03:1,2013-01-08T17:00:00Z,29.4412,-92.0613,1013.48,11111222 
WAVCIS,ioos:station:WAVCIS:CSI03:1,2013-01-08T18:00:00Z,29.4412,-92.0613,1012.08,11111222 
WAVCIS,ioos:station:WAVCIS:CSI03:1,2013-01-08T19:00:00Z,29.4412,-92.0613,1011.39,11111222 
WAVCIS,ioos:station:WAVCIS:CSI03:1,2013-01-08T20:00:00Z,29.4412,-92.0613,1010.46,11111222 
WAVCIS,ioos:station:WAVCIS:CSI03:1,2013-01-08T21:00:00Z,29.4412,-92.0613,1009.99,11111222 
WAVCIS,ioos:station:WAVCIS:CSI03:1,2013-01-08T22:00:00Z,29.4412,-92.0613,1009.98,11111222 
WAVCIS,ioos:station:WAVCIS:CSI03:1,2013-01-08T23:00:00Z,29.4412,-92.0613,1010.5,11111222 
WAVCIS,ioos:station:WAVCIS:CSI03:1,2013-01-09T00:00:00Z,29.4412,-92.0613,1010.85,11111222 
WAVCIS,ioos:station:WAVCIS:CSI03:1,2013-01-09T01:00:00Z,29.4412,-92.0613,1011.28,11111222 
WAVCIS,ioos:station:WAVCIS:CSI03:1,2013-01-09T02:00:00Z,29.4412,-92.0613,1012.24,11111222 
WAVCIS,ioos:station:WAVCIS:CSI03:1,2013-01-09T03:00:00Z,29.4412,-92.0613,1012.21,11111222 
WAVCIS,ioos:station:WAVCIS:CSI03:1,2013-01-09T04:00:00Z,29.4412,-92.0613,1012.9,11111222 
WAVCIS,ioos:station:WAVCIS:CSI03:1,2013-01-09T05:00:00Z,29.4412,-92.0613,1012.72,11111222 
WAVCIS,ioos:station:WAVCIS:CSI03:1,2013-01-09T06:00:00Z,29.4412,-92.0613,1011.93,11111222 
WAVCIS,ioos:station:WAVCIS:CSI03:1,2013-01-09T07:00:00Z,29.4412,-92.0613,1010.95,11111222 
WAVCIS,ioos:station:WAVCIS:CSI03:1,2013-01-09T08:00:00Z,29.4412,-92.0613,1011.24,11111222 
WAVCIS,ioos:station:WAVCIS:CSI03:1,2013-01-09T09:00:00Z,29.4412,-92.0613,1010.65,11111222 
WAVCIS,ioos:station:WAVCIS:CSI03:1,2013-01-09T10:00:00Z,29.4412,-92.0613,1010.55,11111222 
WAVCIS,ioos:station:WAVCIS:CSI03:1,2013-01-09T11:00:00Z,29.4412,-92.0613,1010.81,11111222 
WAVCIS,ioos:station:WAVCIS:CSI03:1,2013-01-09T12:00:00Z,29.4412,-92.0613,1011.08,11111222 
WAVCIS,ioos:station:WAVCIS:CSI03:1,2013-01-09T13:00:00Z,29.4412,-92.0613,1011.4,11111222 
WAVCIS,ioos:station:WAVCIS:CSI03:1,2013-01-09T14:00:00Z,29.4412,-92.0613,1012.08,11111222 
WAVCIS,ioos:station:WAVCIS:CSI03:1,2013-01-09T15:00:00Z,29.4412,-92.0613,1013.17,11111222 
WAVCIS,ioos:station:WAVCIS:CSI03:1,2013-01-09T16:00:00Z,29.4412,-92.0613,1013.19,11111222 
WAVCIS,ioos:station:WAVCIS:CSI03:1,2013-01-09T17:00:00Z,29.4412,-92.0613,1012.03,11111222 
WAVCIS,ioos:station:WAVCIS:CSI03:1,2013-01-09T18:00:00Z,29.4412,-92.0613,1010.53,11111222 
WAVCIS,ioos:station:WAVCIS:CSI03:1,2013-01-09T19:00:00Z,29.4412,-92.0613,1010.89,11111222 
WAVCIS,ioos:station:WAVCIS:CSI03:1,2013-01-09T20:00:00Z,29.4412,-92.0613,1009.7,11111222 
WAVCIS,ioos:station:WAVCIS:CSI03:1,2013-01-09T21:00:00Z,29.4412,-92.0613,1009.21,11111222 
WAVCIS,ioos:station:WAVCIS:CSI03:1,2013-01-09T22:00:00Z,29.4412,-92.0613,1009.82,11111222 
WAVCIS,ioos:station:WAVCIS:CSI03:1,2013-01-09T23:00:00Z,29.4412,-92.0613,1010.27,11111222 
WAVCIS,ioos:station:WAVCIS:CSI03:1,2013-01-10T00:00:00Z,29.4412,-92.0613,1011.07,11111222 
WAVCIS,ioos:station:WAVCIS:CSI03:1,2013-01-10T01:00:00Z,29.4412,-92.0613,1011.03,11111222 
WAVCIS,ioos:station:WAVCIS:CSI03:1,2013-01-10T02:00:00Z,29.4412,-92.0613,1011.89,11111222 
WAVCIS,ioos:station:WAVCIS:CSI03:1,2013-01-10T03:00:00Z,29.4412,-92.0613,1011.93,11111222 
WAVCIS,ioos:station:WAVCIS:CSI03:1,2013-01-10T04:00:00Z,29.4412,-92.0613,1011.92,11111222 
WAVCIS,ioos:station:WAVCIS:CSI03:1,2013-01-10T05:00:00Z,29.4412,-92.0613,1012.52,11111222 
WAVCIS,ioos:station:WAVCIS:CSI03:1,2013-01-10T06:00:00Z,29.4412,-92.0613,1012.11,11111222 
WAVCIS,ioos:station:WAVCIS:CSI03:1,2013-01-10T07:00:00Z,29.4412,-92.0613,1010.1,11111222 
WAVCIS,ioos:station:WAVCIS:CSI03:1,2013-01-10T08:00:00Z,29.4412,-92.0613,1007.88,11111222 
WAVCIS,ioos:station:WAVCIS:CSI03:1,2013-01-10T09:00:00Z,29.4412,-92.0613,1007.65,11111222 
WAVCIS,ioos:station:WAVCIS:CSI03:1,2013-01-10T10:00:00Z,29.4412,-92.0613,1005.29,11111222 
WAVCIS,ioos:station:WAVCIS:CSI03:1,2013-01-10T11:00:00Z,29.4412,-92.0613,1005.86,11111222 
WAVCIS,ioos:station:WAVCIS:CSI03:1,2013-01-10T12:00:00Z,29.4412,-92.0613,1009.26,11111222 
WAVCIS,ioos:station:WAVCIS:CSI03:1,2013-01-10T13:00:00Z,29.4412,-92.0613,1010.28,11111222 
WAVCIS,ioos:station:WAVCIS:CSI03:1,2013-01-10T14:00:00Z,29.4412,-92.0613,1012.56,11111222 
WAVCIS,ioos:station:WAVCIS:CSI03:1,2013-01-10T15:00:00Z,29.4412,-92.0613,1011.0,11111222 
WAVCIS,ioos:station:WAVCIS:CSI03:1,2013-01-10T16:00:00Z,29.4412,-92.0613,1012.42,11111222 
WAVCIS,ioos:station:WAVCIS:CSI03:1,2013-01-10T17:00:00Z,29.4412,-92.0613,1012.27,11111222 
WAVCIS,ioos:station:WAVCIS:CSI03:1,2013-01-10T18:00:00Z,29.4412,-92.0613,1012.1,11111222 
WAVCIS,ioos:station:WAVCIS:CSI03:1,2013-01-10T19:00:00Z,29.4412,-92.0613,1012.08,11111222 
WAVCIS,ioos:station:WAVCIS:CSI03:1,2013-01-10T20:00:00Z,29.4412,-92.0613,1011.17,11111222 
WAVCIS,ioos:station:WAVCIS:CSI03:1,2013-01-10T21:00:00Z,29.4412,-92.0613,1011.16,11111222 
WAVCIS,ioos:station:WAVCIS:CSI03:1,2013-01-10T22:00:00Z,29.4412,-92.0613,1010.79,11111222 
WAVCIS,ioos:station:WAVCIS:CSI03:1,2013-01-10T23:00:00Z,29.4412,-92.0613,1009.37,11111222 
WAVCIS,ioos:station:WAVCIS:CSI03:1,2013-01-11T00:00:00Z,29.4412,-92.0613,1009.96,11111222 
WAVCIS,ioos:station:WAVCIS:CSI03:1,2013-01-11T01:00:00Z,29.4412,-92.0613,1009.84,11111222 
WAVCIS,ioos:station:WAVCIS:CSI03:1,2013-01-11T02:00:00Z,29.4412,-92.0613,1010.79,11111222 
WAVCIS,ioos:station:WAVCIS:CSI03:1,2013-01-11T03:00:00Z,29.4412,-92.0613,1010.33,11111222 
WAVCIS,ioos:station:WAVCIS:CSI03:1,2013-01-11T04:00:00Z,29.4412,-92.0613,1010.91,11111222 
WAVCIS,ioos:station:WAVCIS:CSI03:1,2013-01-11T05:00:00Z,29.4412,-92.0613,1011.57,11111222 
WAVCIS,ioos:station:WAVCIS:CSI03:1,2013-01-11T06:00:00Z,29.4412,-92.0613,1011.4,11111222 
WAVCIS,ioos:station:WAVCIS:CSI03:1,2013-01-11T07:00:00Z,29.4412,-92.0613,1011.92,11111222 
WAVCIS,ioos:station:WAVCIS:CSI03:1,2013-01-11T08:00:00Z,29.4412,-92.0613,1012.06,11111222 
WAVCIS,ioos:station:WAVCIS:CSI03:1,2013-01-11T09:00:00Z,29.4412,-92.0613,1011.95,11111222 
WAVCIS,ioos:station:WAVCIS:CSI03:1,2013-01-11T10:00:00Z,29.4412,-92.0613,1011.15,11111222 
WAVCIS,ioos:station:WAVCIS:CSI03:1,2013-01-11T11:00:00Z,29.4412,-92.0613,1010.94,11111222 
WAVCIS,ioos:station:WAVCIS:CSI03:1,2013-01-11T12:00:00Z,29.4412,-92.0613,1011.14,11111222 
WAVCIS,ioos:station:WAVCIS:CSI03:1,2013-01-11T13:00:00Z,29.4412,-92.0613,1011.33,11111222 
WAVCIS,ioos:station:WAVCIS:CSI03:1,2013-01-11T14:00:00Z,29.4412,-92.0613,1012.03,11111222 
WAVCIS,ioos:station:WAVCIS:CSI03:1,2013-01-11T15:00:00Z,29.4412,-92.0613,1012.41,11111222 
WAVCIS,ioos:station:WAVCIS:CSI03:1,2013-01-11T16:00:00Z,29.4412,-92.0613,1012.45,11111222 
WAVCIS,ioos:station:WAVCIS:CSI03:1,2013-01-11T17:00:00Z,29.4412,-92.0613,1011.64,11111222 
WAVCIS,ioos:station:WAVCIS:CSI03:1,2013-01-11T18:00:00Z,29.4412,-92.0613,1010.82,11111222 
WAVCIS,ioos:station:WAVCIS:CSI03:1,2013-01-11T19:00:00Z,29.4412,-92.0613,1009.78,11111222 
WAVCIS,ioos:station:WAVCIS:CSI03:1,2013-01-11T20:00:00Z,29.4412,-92.0613,1009.15,11111222 
WAVCIS,ioos:station:WAVCIS:CSI03:1,2013-01-11T21:00:00Z,29.4412,-92.0613,1008.87,11111222 
WAVCIS,ioos:station:WAVCIS:CSI03:1,2013-01-11T22:00:00Z,29.4412,-92.0613,1008.76,11111222 